Hourly Data Report for April 15, 2003

SHERBROOKE A
QUEBEC

45°26'00.000" N
71°41'00.000" W
241.40 m
7028124
71610
YSC

Download Data

Hourly Data (April 2003)
Hourly Data Report for April 15, 2003
TIME
LST
Temp Definition
°C
Dew Point Definition
°C
Rel Hum Definition
%
Precip. Amount Definition
mm

Wind Dir Definition
10's deg

Wind Spd Definition
km/h
Visibility Definition
km
Stn Press Definition
kPa
Hmdx Definition


Wind Chill Definition


Weather Definition


00:00 6.3 5.4 94   15 4 11.3 98.63     Rain
01:00 6.5 5.8 95   12 6 15.0 98.47      
02:00 6.5 6.1 97   8 4 6.4 98.47     Rain
03:00 6.4 6.0 97   36 4 11.3 98.34     Rain
04:00 7.2 5.1 86   19 7 15.0 98.28      
05:00 6.8 5.0 88     0 15.0 98.27      
06:00 8.0 5.0 81     0 15.0 98.24      
07:00 9.6 5.4 75   34 4 24.1 98.28     Mostly Cloudy
08:00 9.0 8.0 93     0 24.1 98.23     Rain
09:00 9.4 7.1 86   12 6 24.1 98.20     Rain Showers
10:00 11.8 9.4 85     0 24.1 98.13     Rain Showers
11:00 14.4 8.5 68   19 9 24.1 97.89     Mostly Cloudy
12:00 17.1 7.7 54   23 15 24.1 97.82     Rain Showers
13:00 14.5 9.5 72   28 6 24.1 97.85     Rain Showers
14:00 15.7 10.1 69   36 6 24.1 97.60     Mostly Cloudy
15:00 15.6 11.0 74   2 6 24.1 97.52     Mostly Cloudy
16:00 12.2 9.2 82   10 4 24.1 97.72     Mostly Cloudy
17:00 11.3 9.6 89   12 9 12.9 97.73      
18:00 11.9 10.4 91   20 11 4.8 97.76     Moderate Rain
19:00 10.8 10.4 97   24 6 1.4 97.76     Rain
20:00 10.5 10.2 98   13 6 1.3 97.70     Rain
21:00 10.8 10.7 99   21 7 0.6 97.81     Rain
22:00 11.3 10.9 97   21 7 3.5 97.75     Rain
23:00 10.9 10.6 98   25 7 2.9 97.74      

Notes on Data Quality.

Legend

  • E = Estimated
  • M = Missing
  • NA = Not Available*
  • [empty] = Indicates an unobserved value
Date modified: